INTERCOSMOS 25 (21819 NORAD) Tracking and Keplerian Element Data

This shows tracking and keplerian element data for the satellite.

Feedback or suggestion? Click here.




ElementValue
Catalog21819
NameINTERCOSMOS 25
Epoch Orbit31389
Epoch Day16.09577344
Epoch Year2022
RAAN140.119
Inclination82.5805
Eccentricity0.1515214
Argument of Perigee120.8207
Mean Anonmoly255.0811
Mean Motion12.05463078
Decay Rate4.16E-06
L11 21819U 91086A 22016.09577344 .00000416 00000+0 76557-4 0 9999
L22 21819 82.5805 140.1190 1515214 120.8207 255.0811 12.05463078313898

Live tracking and technical data element details for INTERCOSMOS 25 (NORAD 21819). INTERCOSMOS 25 can be tracked NOW for your location showing map with azimuth and elevation plus other details from your city location.

Track the satellite on the map from your city or location and see movement details for azimuth, elevation, latitude, longitude, range, height, and movement on the map or in text.







IsCatalogInMostPopularTable: catalog: 21819, numindb: 272
Update: records affected: 1



GetName: 21819 INTERCOSMOS 25

Hit Count: updated at: Mon, 17 Jan 2022 00:28:16 GMT